BER8DI EDDH-LFLL

Flight info

Callsign BER8DI
Flight time N/A
Altitude 36000
Route HABFU1G HABFU Y348 DOMEG DCT SUTAL/N0437F370 DCT GILIR T14 MILPA
Aircraft A320/M-SDE3FGHIRWY/LB1

Departure

Time 2026-04-22 15:52
Airport Hamburg Helmut Schmidt Airport (EDDH)

Arrival

Time N/A
Airport Lyon Saint-Exupéry Airport (LFLL)
Time Latitude Longitude Altitude Speed Heading
2026-04-22 15:22 53.62845 10.00218 49 ft 0 kts 62°
2026-04-22 15:44 53.62843 10.00212 48 ft 3 kts 62°
2026-04-22 15:44 53.62829 10.00172 45 ft 4 kts 56°
2026-04-22 15:44 53.62813 10.00137 45 ft 4 kts 39°
2026-04-22 15:45 53.62792 10.00120 43 ft 4 kts 345°
2026-04-22 15:45 53.62786 10.00122 44 ft 0 kts 333°
2026-04-22 15:49 53.62819 10.00094 47 ft 9 kts 333°
2026-04-22 15:49 53.62854 10.00006 48 ft 7 kts 269°
2026-04-22 15:49 53.62843 9.99959 48 ft 0 kts 242°
2026-04-22 15:50 53.62842 9.99955 48 ft 3 kts 242°
2026-04-22 15:50 53.62812 9.99858 45 ft 13 kts 244°
2026-04-22 15:50 53.62854 9.99755 43 ft 8 kts 333°
2026-04-22 15:51 53.62856 9.99754 43 ft 0 kts 333°
2026-04-22 15:51 53.62896 9.99720 45 ft 30 kts 333°
2026-04-22 15:52 53.63302 9.99360 47 ft 98 kts 333°
2026-04-22 15:52 53.64076 9.98695 52 ft 149 kts 333°
2026-04-22 15:52 53.65084 9.97863 446 ft 162 kts 329°
2026-04-22 15:52 53.66079 9.96986 1244 ft 160 kts 329°
2026-04-22 15:53 53.67052 9.96097 2025 ft 157 kts 331°
2026-04-22 15:53 53.68013 9.95255 2734 ft 157 kts 332°
2026-04-22 15:53 53.69049 9.94375 3109 ft 177 kts 333°
2026-04-22 15:53 53.70213 9.93367 3373 ft 199 kts 328°
2026-04-22 15:54 53.71168 9.91627 3990 ft 209 kts 297°
2026-04-22 15:54 53.71420 9.89138 4459 ft 235 kts 262°
2026-04-22 15:54 53.70937 9.86296 4881 ft 261 kts 253°
2026-04-22 15:54 53.70339 9.83339 5593 ft 270 kts 253°
2026-04-22 15:55 53.69717 9.80330 6458 ft 274 kts 254°
2026-04-22 15:55 53.69098 9.77308 7270 ft 277 kts 253°
2026-04-22 15:55 53.68470 9.74193 8071 ft 282 kts 255°
2026-04-22 15:55 53.67843 9.71031 8887 ft 287 kts 254°
2026-04-22 15:56 53.67210 9.67821 9704 ft 290 kts 255°
2026-04-22 15:56 53.66568 9.64556 10488 ft 295 kts 254°
2026-04-22 15:56 53.65750 9.61294 10891 ft 315 kts 242°
2026-04-22 15:56 53.64407 9.58185 11135 ft 340 kts 228°
2026-04-22 15:57 53.62567 9.55565 11679 ft 351 kts 214°
2026-04-22 15:57 53.60427 9.53535 12381 ft 355 kts 208°
2026-04-22 15:57 53.58241 9.51545 13106 ft 359 kts 209°
2026-04-22 15:57 53.56026 9.49509 13813 ft 363 kts 209°
2026-04-22 15:58 53.53787 9.47448 14467 ft 367 kts 209°
2026-04-22 15:58 53.51529 9.45374 15085 ft 370 kts 208°
2026-04-22 15:58 53.49257 9.43294 15706 ft 373 kts 208°
2026-04-22 15:58 53.46964 9.41203 16327 ft 377 kts 208°
2026-04-22 15:59 53.44648 9.39100 16938 ft 380 kts 208°
2026-04-22 15:59 53.42343 9.37011 17536 ft 383 kts 208°
2026-04-22 15:59 53.39987 9.34873 18139 ft 386 kts 208°
2026-04-22 15:59 53.37614 9.32724 18723 ft 389 kts 208°
2026-04-22 16:00 53.35220 9.30557 19232 ft 392 kts 208°
2026-04-22 16:00 53.32753 9.28570 19741 ft 395 kts 200°
2026-04-22 16:00 53.30108 9.27290 20258 ft 396 kts 189°
2026-04-22 16:00 53.27388 9.26492 20774 ft 398 kts 188°
2026-04-22 16:01 53.24650 9.25689 21289 ft 400 kts 188°
2026-04-22 16:01 53.21899 9.24870 21807 ft 403 kts 188°
2026-04-22 16:01 53.19134 9.24039 22294 ft 405 kts 188°
2026-04-22 16:01 53.16352 9.23205 22794 ft 407 kts 188°
2026-04-22 16:02 53.13551 9.22375 23279 ft 410 kts 188°
2026-04-22 16:02 53.10737 9.21546 23752 ft 412 kts 188°
2026-04-22 16:02 53.07872 9.20700 24169 ft 415 kts 188°
2026-04-22 16:02 53.05051 9.19864 24550 ft 417 kts 188°
2026-04-22 16:03 53.02190 9.19014 24941 ft 419 kts 188°
2026-04-22 16:03 52.99309 9.18158 25323 ft 421 kts 188°
2026-04-22 16:03 52.96429 9.17203 25687 ft 424 kts 193°
2026-04-22 16:03 52.93628 9.15572 26046 ft 429 kts 202°
2026-04-22 16:04 52.90967 9.13305 26400 ft 432 kts 206°
2026-04-22 16:04 52.88303 9.10954 26683 ft 436 kts 207°
2026-04-22 16:04 52.85605 9.08585 26992 ft 439 kts 207°
2026-04-22 16:04 52.82898 9.06216 27335 ft 441 kts 206°